Location: Barcelona
(41.3830°N, 2.1830°E)
Time: 00:51:09
(UTC+02:00)

ISS - Pass Details

Date: 19 July 2019
Orbit: 409 x 418 km, 51.6° (Epoch: 23 July)

Event Time Altitude Azimuth Distance (km) Brightness Sun altitude
Rises 03:51:57 0° 309° (NW) 2,347 0.2 -22.3°
Reaches altitude 10° 03:54:08 10° 317° (NW) 1,481 -0.8 -22.1°
Maximum altitude 03:57:17 38° 28° (NNE) 639 -2.3 -21.8°
Drops below altitude 10° 04:00:24 10° 99° (E) 1,472 -0.7 -21.5°
Sets 04:02:34 0° 107° (ESE) 2,329 0.2 -21.3°
